Regional Weather Roundup
Issued by NWS San Diego, CA

Home | Current Version | Previous Version | Text Only | Print | Product List | Glossary On
Versions: 1 2 3 4 5 6 7 8 9 10 11 12 13 14 15 16 17 18 19 20 21 22 23 24 25 26 27 28 29 30 31 32 33 34 35 36 37 38 39 40 41 42 43 44 45 46 47 48 49 50
000
ASUS46 KSGX 301111
RWRSGX

SAN DIEGO HOURLY WEATHER ROUNDUP
NATIONAL WEATHER SERVICE SAN DIEGO CA
400 AM PDT SAT APR 30 2016

NOTE: "FAIR" INDICATES FEW OR NO CLOUDS BELOW 12,000 FEET WITH NO
SIGNIFICANT WEATHER AND/OR OBSTRUCTIONS TO VISIBILITY.

CAZ042-043-060-061-PZZ750-775-301200-

GREATER SAN DIEGO AREA

CITY           SKY/WX    TMP DP  RH WIND       PRES   REMARKS
LINDBERGH FLD  CLOUDY    59  47  64 SW9       29.89F
POINT LOMA       N/A     56  47  72 SW15        N/A
NATIONAL CITY    N/A     58  51  76 S12       29.89F
CHULA VISTA      N/A     57  51  79 SW6       29.81F
IMPERIAL BEACH CLOUDY    59  48  67 SW9       29.89F
BROWN FIELD    CLOUDY    55  48  77 SW10      29.87F
MIRAMAR MCAS   CLOUDY    58  48  69 SW9       29.86F
MONTGOMERY FLD CLOUDY    57  48  72 S9        29.87F

$$

NORTH SAN DIEGO COUNTY

CITY           SKY/WX    TMP DP  RH WIND       PRES   REMARKS
CAMP PENDLETON CLOUDY    57  50  77 SW7       29.85S
OCEANSIDE AP   CLOUDY    58  49  72 S10       29.84F
OCEANSIDE HBR    N/A     58  54  85 S10       29.87F
VISTA            N/A     56  51  84 CALM      29.84F
CARLSBAD       CLOUDY    57  50  77 S12       29.84F
DEL MAR          N/A     56  50  80 SW3       29.89F
LA JOLLA SCRIP   N/A     56  51  81 SE6       29.86F
FALLBROOK        N/A     55  54  97 CALM      29.85S
SAN MARCOS       N/A     55  47  73 CALM      29.84F
POWAY            N/A     56  51  84 S5        29.88F

$$

EAST SAN DIEGO COUNTY

CITY           SKY/WX    TMP DP  RH WIND       PRES   REMARKS
RAMONA         LGT RAIN  52  48  86 S8        29.85F
SANTEE LAKES     N/A     56  51  83 SE10      29.86F
LA MESA          N/A     54  50  87 CALM      29.81F
JAMUL            N/A     53  50  88 SW1       29.87F
DESCANSO N       N/A     46  42  87 CALM      29.75F
MT. LAGUNA OBS   N/A     39  25  58 W10       29.48  WCI  32
CAMPO            N/A     49  45  86 SW6       29.83F

$$

ORANGE COUNTY AND THE LOS ANGELES BASIN

CITY           SKY/WX    TMP DP  RH WIND       PRES   REMARKS
JOHN WAYNE AP  CLOUDY    56  51  84 SW5       29.84F
LAKE FOREST FR   N/A     54  50  86 CALM      29.73F
HUNTINGTON BCH   N/A     58  53  84 SW1       29.86S
LOS ALAMITOS   FAIR      58  51  77 SW2       29.84S
FULLERTON      CLOUDY    58  52  80 S3        29.84R HAZE
LONG BEACH     CLOUDY    58  50  75 SW3       29.84F
L.A. AP        CLOUDY    56  50  80 SE5       29.84S
L.A. DOWNTOWN  CLOUDY    57  51  80 CALM      29.84R

$$

THE INLAND EMPIRE

CITY           SKY/WX    TMP DP  RH WIND       PRES   REMARKS
CORONA         CLOUDY    56  51  84 CALM      29.84S
CHINO          CLOUDY    57  50  77 W6        29.84F
ONTARIO        CLOUDY    54  50  86 W10       29.83F
RIVERSIDE AP   CLOUDY    56  50  80 VRB3      29.83F
MORENO VALLEY    N/A     53  52  96 CALM      27.95F
MARCH ARB      CLOUDY    55  50  82 S8        29.82F
HORSETHIEF CYN   N/A     53  44  73 CALM      29.85F
PERRIS           N/A     54  52  93 S6          N/A
HEMET EAST       N/A     52  45  78 SW2       29.72F
FRENCH VALLEY  CLOUDY    52  50  93 SW8       29.84S
TEMECULA         N/A     55  51  88 SW7       29.82S

$$

SAN BERNARDINO AND RIVERSIDE COUNTY MOUNTAINS

CITY           SKY/WX    TMP DP  RH WIND       PRES   REMARKS
BIG BEAR AP    CLEAR     34  32  93 SW5       29.84F WCI  30
ANGELUS OAKS     N/A     39  36  89 CALM      29.70F
PINE COVE        N/A     37  37  98 NW1       29.74F

$$

SOUTHERN DESERT INCLUDING THE COACHELLA VALLEY

CITY           SKY/WX    TMP DP  RH WIND       PRES   REMARKS
PALM SPRINGS   CLEAR     63  48  58 NW3       29.67F
THOUSAND PALMS   N/A     64  47  54 NW24      29.65S
PALM DESERT      N/A     64  48  55 CALM      30.92S
THERMAL        CLEAR     66  46  48 N16G24    29.65S
BLYTHE         CLEAR     64  43  46 S10       29.68R
IMPERIAL AP    CLEAR     66  40  38 W20G29    29.68S
EL CENTRO NAS  CLEAR    N/A N/A N/A W25       29.71S
YUMA AZ        CLEAR     65  53  65 SE14      29.69F

$$

UPPER DESERT

CITY           SKY/WX    TMP DP  RH WIND       PRES   REMARKS
VICTORVILLE AP CLEAR     52  37  58 W7        29.78R
HESPERIA         N/A     49  45  85 W7        29.86S
PALMDALE       CLEAR     52  34  50 W14       29.81R
LANCASTER      CLEAR     51  26  37 W15       29.80S
EDWARDS AFB    CLEAR     55  32  41 VRB5      29.76R
DAGGETT        CLEAR     62  39  42 SW24G31   29.71R
29 PALMS N     CLEAR     61  37  41 NW14G23   29.77F
NEEDLES        CLEAR     69  38  32 SW13      29.65S

$$

REGIONAL REPORTS

CITY           SKY/WX    TMP DP  RH WIND       PRES   REMARKS
SANTA BARBARA  CLEAR     53  44  71 E6        29.82F
SANDBERG       CLEAR     46  22  38 N22       29.85S
LAS VEGAS NV   CLOUDY    54  40  59 NW26G40   29.70R
PHOENIX AZ     PTCLDY    65  37  35 E6        29.73S
TIJUANA          N/A    N/A N/A N/A MISG        N/A
ENSENADA NW      N/A     57  32  38 W6        29.89S

$$

OFFSHORE ISLANDS

CITY           SKY/WX    TMP DP  RH WIND       PRES   REMARKS
CATALINA ARPT  CLOUDY    49  48  97 NE3       29.84F
SAN NICOLAS IS CLOUDY   N/A N/A N/A NW38G48   29.84F

$$

MARINE AND OFFSHORE BUOY REPORTS

STATION/POSITION SKY/WX   TEMP    WIND        PRES    SWELL
                          AIR SEA DIR/SP/G            HT/PER/DIR
                          (F)     (DEG/KT/KT) (MB)    (FT/S/D)
TANNER BANKS               57 59  310/ 25/ 29 1011.9F  10/330/ 8
S CLEMENTE BASIN           56 61  270/ 17/ 23 1010.8F   5/290/15
SAN NICOLAS IS.               56                N/A     7/310/11
SO. S. ROSA ISLA           55 55  310/ 25/ 31 1011.1F   7/300/11
W. S. BARBARA CH           52 51  320/ 17/ 21 1010.9F   8/310/ 9
M. S. BARBARA CH           54 55  290/ 14/ 19 1010.5R
S. MONICA BASIN            56 58   CALM  /  2 1010.6S   5/260/ 8
S PEDRO CHANNEL               61                N/A     2/270/14
OCEANSIDE OFFSHR              64                N/A     2/190/15
TORREY PINES OTR              64                N/A     3/270/13
LA JOLLA 1                 58 65  210/ 14/ 18 1011.5F
SAN DIEGO BAY                 68              1012.1F
POINT LOMA SOUTH              63                N/A     3/270/14

$$




USA.gov is the U.S. government's official web portal to all federal, state and local government web resources and services.